Weather in Tsagan-Nur

Russia / Republic of Kalmykia     47°22′05″N   45°13′40″E
temp.,
°C
wind,
m/s
gust,
m/s
humid.,
%
clouds,
%
prec.,
mm/h
press.,
hPa
HPBL,
m
7 may, fri
fri700:00+14sse6114992 0.0 1016362
03:00+12s3561100 0.0 1016106
06:00+13sse3667100 0.0 1016218
09:00+17s66475 0.0 10171023
12:00+20s663439 0.0 10161633
15:00+22ssw5631100 0.0 10151821
18:00+21sw3540100 0.0 1015386
21:00+17w33641 0.5 101740
8 may, sat
sat800:00+15wnw33611 0.0 101725
03:00+13nw227599 0.0 101715
06:00+14n127652 0.0 101869
09:00+19ne105616 0.0 1017580
12:00+23s33385 0.0 10161881
15:00+25s4433100 0.0 10142130
18:00+24s3436100 0.0 1014168
21:00+20sse454299 0.0 101365
9 may, sun
sun900:00+17s51143100 0.0 1013318
03:00+16se51045100 0.0 1011284
06:00+15sse51259100 0.0 1011443
09:00+19sse6749100 0.0 1011709
12:00+23sse6741100 0.0 10091574
15:00+25s563342 0.0 10082170
18:00+14wnw111681100 0.0 1009460
21:00+9nw101685100 1.8 1012559
10 may, mon
mon1000:00+9wnw101488100 4.4 1013789
03:00+8wnw91380100 7.1 1014783
06:00+8wnw81283100 0.8 1014900
09:00+10wnw91169100 1.1 10151206
12:00+11w8964100 0.1 10151346
15:00+13wsw6853100 0.1 10161721
18:00+12w6758100 0.0 10161186
21:00+10wsw236730 0.0 101877
11 may, tue
tue1100:00+8sw227913 0.0 101912
03:00+7sw35875 0.0 102094
06:00+8sw2383100 0.0 1021138
09:00+11ne1265100 0.0 1022580
12:00+14se1251100 0.0 1023933
15:00+14nne3351100 0.1 1023599
18:00+14n445515 0.0 1021770
21:00+11nnw48700 0.0 1020163